Regional Weather Roundup
Issued by NWS

Home | Current Version | Previous Version | Graphics & Text | Print | Product List | Glossary On
Versions: 1 2 3 4 5 6 7 8 9 10 11 12 13 14 15 16 17 18 19 20 21 22 23 24 25 26 27 28
000
ASUS45 KCYS 260010
RWRWY

WYOMING REGIONAL WEATHER ROUNDUP
NATIONAL WEATHER SERVICE CHEYENNE WY
600 PM MDT SAT OCT 25 2014

NOTE:  "FAIR" INDICATES FEW OR NO CLOUDS BELOW 12,000 FEET
WITH NO SIGNIFICANT WEATHER AND/OR OBSTRUCTIONS TO VISIBILITY.

WYZ001-260100-
YELLOWSTONE NATIONAL PARK

CITY           SKY/WX    TMP DP  RH WIND       PRES   REMARKS
LK YELLOWSTONE   N/A     56  23  27 VRB6      30.05
6HR MIN TEMP:  56; 6HR MAX TEMP:  62;

W YELLOWSTONE  NOT AVBL

$$
WYZ002>013-054>058-071-098>099-260100-
NORTHERN WYOMING

CITY           SKY/WX    TMP DP  RH WIND       PRES   REMARKS
JACKSON        CLEAR     63  25  23 S12G30    29.97F
CODY           CLEAR     72  25  17 CALM      29.82
GREYBULL       CLEAR     76  20  12 SE7       29.77F
6HR MIN TEMP:  56; 6HR MAX TEMP:  80;

WORLAND        CLEAR     74  19  12 S16       29.80F
6HR MIN TEMP:  65; 6HR MAX TEMP:  81;

SHERIDAN       CLEAR     56  38  50 SW6       29.80F
6HR MIN TEMP:  56; 6HR MAX TEMP:  74;

BUFFALO        CLEAR     67  16  14 S7        29.89F
6HR MIN TEMP:  67; 6HR MAX TEMP:  80;

GILLETTE       CLEAR     63  35  35 S15       29.88F
6HR MIN TEMP:  63; 6HR MAX TEMP:  75;

HULETT         FAIR      66  28  24 CALM      29.92
NEWCASTLE      FAIR      61  30  31 SE10      29.95

$$
WYZ014>020-022>026-101>103-260100-
CENTRAL WYOMING

CITY           SKY/WX    TMP DP  RH WIND       PRES   REMARKS
BIG PINEY      PTCLDY    62  21  20 S15       30.04F
6HR MIN TEMP:  52; 6HR MAX TEMP:  69; 6HR PCP: TRACE;

PINEDALE       PTCLDY    61  21  21 S9        30.05
DUBOIS         FAIR      59  19  21 SW3       29.99F
LANDER         PTCLDY    66  23  19 E7        29.91F
6HR MIN TEMP:  59; 6HR MAX TEMP:  76;

RIVERTON       PTCLDY    71  18  13 S9        29.93F
6HR MIN TEMP:  58; 6HR MAX TEMP:  73;

CASPER         CLEAR     69  22  16 SW16      29.97F
6HR MIN TEMP:  69; 6HR MAX TEMP:  77;

DOUGLAS        CLEAR     69  19  15 SW9       29.98F
6HR MIN TEMP:  69; 6HR MAX TEMP:  81;


$$
WYZ021-027>030-104>119-260100-
SOUTHERN WYOMING

CITY           SKY/WX    TMP DP  RH WIND       PRES   REMARKS
EVANSTON       PTCLDY    63  17  17 SW22G30   30.06F
6HR MIN TEMP:  63; 6HR MAX TEMP:  71;

KEMMERER       PTCLDY    61  19  20 SW9G16    30.07F
FORT BRIDGER   FAIR      68  25  20 SW12G23   30.09F
ROCK SPRINGS   CLOUDY    63  29  27 S21G31    30.05F
6HR MIN TEMP:  59; 6HR MAX TEMP:  72;

DIXON          FAIR      65  28  24 SW10      30.14
RAWLINS        CLEAR     64  24  21 SW16      30.10F
6HR MIN TEMP:  64; 6HR MAX TEMP:  72;

SARATOGA       FAIR      61  23  23 S9        30.13F
LARAMIE        CLEAR     61  18  18 SW12      30.14F
6HR MIN TEMP:  61; 6HR MAX TEMP:  72;

CHEYENNE       CLEAR     65  22  19 S8        30.10F
6HR MIN TEMP:  65; 6HR MAX TEMP:  74;

TORRINGTON     CLEAR     68  36  30 E13       29.96F
6HR MIN TEMP:  65; 6HR MAX TEMP:  80;

PINE BLUFFS    FAIR      63  32  31 S6        30.06F

$$



USA.gov is the U.S. government's official web portal to all federal, state and local government web resources and services.